THORAD DELTA 1 DEB, 8180

Orbit data source: Space-Track

THORAD DELTA 1 DEB, 8180 is space debris in SSO originally from a launch on Fri, 15 Nov 1974 UTC launched from the Air Force Western Test Range (AFWTR). Debris objects in space refer to the collection of defunct objects orbiting the Earth. Examples of debris include non-operational satellites, rocket bodies, and fragments generated from explosions, collisions, or faulty payload assembly.

Loading next visibility...
Identifier
8180, 1974-089AW
Orbit
SSO
Country
Flag of USUS
Related business
Manufacturer
Unknown
Mission
Spacecraft
Bus & Motor
Unknown
Mass
Unknown
Launch date (UTC)
1974-11-15 (51 years ago)
Launch vehicle
Unknown
Launch site
Air Force Western Test Range (AFWTR)
Object type
Payload
Rocket body
Debris
Shape & HBR
Unknown shape, 0.2 m
Radar Cross Section
Medium (>0.1 m² and <1 m²)

Expand to show TLE details & history
Last TLE update: 13 hours ago

TLE from 13 hours ago
0 THORAD DELTA 1 DEB
1 08180U 74089AW  25293.92353229  .00000433  00000-0  34549-2 0  9998
2 08180 100.8989  31.7281 0111194 233.7690 204.1865 12.40088293303484
Epoch: 2025-10-20T22:09Z
TLE epoch observation values (Epoch: 2025-10-20T22:09:53.189Z)
Latitude
73.49277°
Longitude
-10.64813°
Altitude
1,598.883 km
Speed
7.04 km/s
True Right ascension
23h 25m 46s
True Declination
73° 24' 32"
Sunlit
Object was in daylight at epoch
Visualization orbit readout
Latitude
Unknown
Longitude
Unknown
Altitude
Unknown
Speed
Unknown
Apparent Right ascension
Unknown
Apparent Declination
Unknown
Sunlit
N/A
Visualization observer readout
Local Sidereal Time
06:26:52
Azimuth
Unknown
Elevation
Unknown
Doppler factor
Unknown
Orbital elements
Apogee altitude
1,591.382 km
Perigee altitude
1,416.099 km
Semi-major axis
7,881.877 km
Eccentricity
0.01112
Inclination
100.8989°
RAAN
31.7281°
Arg. of periapsis
233.769°
True anomaly
203.671°
Mean anomaly
204.1865°
Eccentric anomaly
203.9281°
Mean motion
3.10169 °/min
Orbital period
116.07 mins
BSTAR
0.0034549
Loading maneuver chart data...
Computing Atmospheric mass density...

Documentation

Showing up to 5 results
|